| time (UTC) | temp F | wind direction | speed MPH | gust MPH | rain 1hr in | rain 24hr in | rain mn in | humidity % | barometer mb |
| 20260507044036 | 55 | 0.0 | 1.0 | 0.00 | 0.00 | 0.00 | 86 | 1020.2 | |
| 20260507043017 | 55 | 0.0 | 2.0 | 0.00 | 0.00 | 0.00 | 86 | 1020.3 | |
| 20260507042016 | 55 | 0.0 | 1.0 | 0.00 | 0.00 | 0.00 | 85 | 1020.2 | |
| 20260507041016 | 55 | 0.0 | 1.0 | 0.00 | 0.00 | 0.00 | 85 | 1020.1 | |
| 20260507040017 | 55 | 0.0 | 5.0 | 0.00 | 0.00 | 0.00 | 84 | 1020.1 | |
| 20260507035016 | 56 | 0.0 | 2.0 | 0.00 | 0.00 | 0.00 | 84 | 1020.1 | |
| 20260507034016 | 56 | 0.0 | 1.0 | 0.00 | 0.00 | 0.00 | 83 | 1019.9 | |
| 20260507033016 | 56 | 0.0 | 1.0 | 0.00 | 0.00 | 0.00 | 83 | 1020.0 | |
| 20260507032017 | 56 | 0.0 | 0.0 | 0.00 | 0.00 | 0.00 | 83 | 1020.0 | |
| 20260507031016 | 56 | 0.0 | 2.0 | 0.00 | 0.00 | 0.00 | 83 | 1019.9 | |
| 20260507030017 | 56 | 0.0 | 3.0 | 0.00 | 0.00 | 0.00 | 83 | 1019.8 | |
| 20260507025016 | 56 | 0.0 | 0.0 | 0.00 | 0.00 | 0.00 | 83 | 1019.8 | |
| 20260507024016 | 56 | 0.0 | 1.0 | 0.00 | 0.00 | 0.00 | 83 | 1019.7 | |
| 20260507023016 | 57 | 0.0 | 1.0 | 0.00 | 0.00 | 0.00 | 82 | 1019.6 | |
| 20260507022016 | 57 | 0.0 | 2.0 | 0.00 | 0.00 | 0.00 | 82 | 1019.7 | |
| 20260507021016 | 57 | 0.0 | 2.0 | 0.00 | 0.00 | 0.00 | 82 | 1019.6 | |
| 20260507020036 | 57 | 0.0 | 3.0 | 0.00 | 0.00 | 0.00 | 82 | 1019.6 | |
| 20260507015016 | 57 | 0.0 | 2.0 | 0.00 | 0.00 | 0.00 | 82 | 1019.5 | |
| 20260507014036 | 57 | 0.0 | 1.0 | 0.00 | 0.00 | 0.00 | 82 | 1019.5 | |
| 20260507013017 | 57 | 0.0 | 2.0 | 0.00 | 0.00 | 0.00 | 82 | 1019.6 | |
| 20260507012016 | 57 | 0.0 | 3.0 | 0.00 | 0.00 | 0.00 | 82 | 1019.7 | |
| 20260507011016 | 57 | 248 | 1.0 | 3.0 | 0.00 | 0.00 | 0.00 | 82 | 1019.6 |
| 20260507010016 | 57 | 0.0 | 1.0 | 0.00 | 0.00 | 0.00 | 82 | 1019.8 | |
| 20260507005016 | 57 | 180 | 1.0 | 3.0 | 0.00 | 0.00 | 0.00 | 82 | 1019.9 |
| 20260507004016 | 57 | 0.0 | 1.0 | 0.00 | 0.00 | 0.00 | 82 | 1019.8 | |
| 20260507003016 | 57 | 135 | 1.0 | 5.0 | 0.00 | 0.00 | 0.00 | 81 | 1019.8 |
| 20260507002036 | 57 | 158 | 1.0 | 3.0 | 0.00 | 0.00 | 0.00 | 81 | 1019.8 |
| 20260507001036 | 57 | 0.0 | 2.0 | 0.00 | 0.00 | 0.00 | 80 | 1019.8 | |
| 20260507000036 | 57 | 225 | 1.0 | 4.0 | 0.00 | 0.00 | 0.00 | 81 | 1019.7 |
| 20260506235016 | 57 | 203 | 1.0 | 5.0 | 0.00 | 0.00 | 0.00 | 80 | 1019.8 |
| 20260506234016 | 57 | 203 | 1.0 | 4.0 | 0.00 | 0.00 | 0.00 | 80 | 1019.8 |
| 20260506233036 | 57 | 225 | 2.0 | 5.0 | 0.00 | 0.00 | 0.00 | 80 | 1019.8 |
| 20260506232016 | 57 | 248 | 1.0 | 3.0 | 0.00 | 0.00 | 0.00 | 80 | 1019.9 |
| 20260506231016 | 58 | 113 | 1.0 | 4.0 | 0.00 | 0.00 | 0.00 | 79 | 1019.8 |
| 20260506230016 | 58 | 270 | 1.0 | 6.0 | 0.00 | 0.00 | 0.00 | 78 | 1019.9 |
| 20260506225036 | 58 | 225 | 1.0 | 3.0 | 0.00 | 0.00 | 0.00 | 77 | 1019.9 |
| 20260506224016 | 58 | 225 | 1.0 | 4.0 | 0.00 | 0.00 | 0.00 | 77 | 1019.9 |
| 20260506223036 | 58 | 113 | 1.0 | 4.0 | 0.00 | 0.00 | 0.00 | 76 | 1019.8 |
| 20260506222016 | 58 | 225 | 1.0 | 6.0 | 0.00 | 0.00 | 0.00 | 76 | 1019.9 |
| 20260506221015 | 58 | 225 | 1.0 | 5.0 | 0.00 | 0.00 | 0.00 | 76 | 1020.0 |
| 20260506220016 | 59 | 135 | 1.0 | 6.0 | 0.00 | 0.00 | 0.00 | 75 | 1020.1 |
| 20260506215015 | 58 | 203 | 1.0 | 3.0 | 0.00 | 0.00 | 0.00 | 76 | 1020.1 |
| 20260506214016 | 58 | 225 | 1.0 | 6.0 | 0.00 | 0.00 | 0.00 | 76 | 1020.1 |
| 20260506213015 | 58 | 248 | 1.0 | 5.0 | 0.00 | 0.00 | 0.00 | 76 | 1019.9 |
| 20260506212015 | 58 | 225 | 1.0 | 6.0 | 0.00 | 0.00 | 0.00 | 76 | 1020.1 |
| 20260506211015 | 58 | 135 | 1.0 | 8.0 | 0.00 | 0.00 | 0.00 | 75 | 1020.0 |
| 20260506210015 | 59 | 0.0 | 4.0 | 0.00 | 0.00 | 0.00 | 75 | 1020.1 | |
| 20260506205036 | 58 | 248 | 1.0 | 6.0 | 0.00 | 0.00 | 0.00 | 75 | 1020.0 |
| 20260506204016 | 58 | 225 | 1.0 | 6.0 | 0.00 | 0.00 | 0.00 | 76 | 1019.9 |
| 20260506203016 | 58 | 0.0 | 3.0 | 0.00 | 0.00 | 0.00 | 77 | 1019.9 | |
| 20260506202016 | 58 | 135 | 1.0 | 6.0 | 0.00 | 0.00 | 0.00 | 78 | 1019.9 |
| 20260506201036 | 57 | 225 | 1.0 | 6.0 | 0.00 | 0.00 | 0.00 | 79 | 1019.9 |
| 20260506200015 | 57 | 180 | 2.0 | 7.0 | 0.00 | 0.00 | 0.00 | 78 | 1019.9 |
| 20260506195015 | 57 | 180 | 2.0 | 4.0 | 0.00 | 0.00 | 0.00 | 80 | 1019.7 |
| 20260506194016 | 57 | 225 | 1.0 | 4.0 | 0.00 | 0.00 | 0.00 | 80 | 1019.8 |
| 20260506193015 | 56 | 225 | 1.0 | 7.0 | 0.00 | 0.00 | 0.00 | 81 | 1019.8 |
| 20260506192016 | 56 | 248 | 1.0 | 5.0 | 0.00 | 0.00 | 0.00 | 82 | 1019.8 |
| 20260506191016 | 56 | 0.0 | 2.0 | 0.00 | 0.00 | 0.00 | 82 | 1019.8 | |
| 20260506190015 | 56 | 0.0 | 4.0 | 0.00 | 0.00 | 0.00 | 83 | 1019.6 | |
| 20260506185035 | 55 | 203 | 1.0 | 3.0 | 0.00 | 0.00 | 0.00 | 85 | 1019.6 |
| 20260506184015 | 55 | 135 | 1.0 | 5.0 | 0.00 | 0.00 | 0.00 | 86 | 1019.7 |
| 20260506183015 | 55 | 203 | 1.0 | 5.0 | 0.00 | 0.00 | 0.00 | 86 | 1019.6 |
| 20260506182015 | 54 | 225 | 1.0 | 4.0 | 0.00 | 0.00 | 0.00 | 89 | 1019.7 |
| 20260506181015 | 54 | 203 | 1.0 | 4.0 | 0.00 | 0.00 | 0.00 | 88 | 1019.7 |
| 20260506180015 | 54 | 0.0 | 4.0 | 0.00 | 0.00 | 0.00 | 89 | 1019.5 | |
| 20260506175015 | 54 | 248 | 1.0 | 4.0 | 0.00 | 0.00 | 0.00 | 90 | 1019.3 |
| 20260506174035 | 54 | 0.0 | 3.0 | 0.00 | 0.00 | 0.00 | 93 | 1019.3 | |
| 20260506173136 | 53 | 225 | 1.0 | 4.0 | 0.00 | 0.00 | 0.00 | 93 | 1019.4 |
| 20260506172015 | 53 | 225 | 1.0 | 5.0 | 0.00 | 0.00 | 0.00 | 93 | 1019.6 |
| 20260506171035 | 53 | 0.0 | 2.0 | 0.00 | 0.00 | 0.00 | 93 | 1019.4 | |
| 20260506170015 | 54 | 0.0 | 3.0 | 0.00 | 0.00 | 0.00 | 91 | 1019.5 | |
| 20260506165015 | 53 | 0.0 | 2.0 | 0.00 | 0.00 | 0.00 | 91 | 1019.4 | |
| 20260506164015 | 53 | 225 | 1.0 | 3.0 | 0.00 | 0.00 | 0.00 | 91 | 1019.2 |
| 20260506163015 | 53 | 135 | 1.0 | 3.0 | 0.00 | 0.00 | 0.00 | 91 | 1019.3 |
| 20260506162015 | 53 | 0.0 | 3.0 | 0.00 | 0.00 | 0.00 | 92 | 1019.0 | |
| 20260506161015 | 53 | 203 | 1.0 | 3.0 | 0.00 | 0.00 | 0.00 | 93 | 1018.9 |
| 20260506160035 | 53 | 225 | 1.0 | 5.0 | 0.00 | 0.00 | 0.00 | 94 | 1018.7 |
| 20260506155015 | 53 | 0.0 | 6.0 | 0.00 | 0.00 | 0.00 | 94 | 1018.6 | |
| 20260506154035 | 53 | 248 | 1.0 | 3.0 | 0.00 | 0.00 | 0.00 | 94 | 1018.8 |
| 20260506153035 | 53 | 0.0 | 2.0 | 0.00 | 0.00 | 0.00 | 94 | 1019.0 | |
| 20260506152015 | 52 | 0.0 | 2.0 | 0.00 | 0.00 | 0.00 | 95 | 1019.2 | |
| 20260506151015 | 52 | 0.0 | 2.0 | 0.00 | 0.00 | 0.00 | 95 | 1019.0 | |
| 20260506150035 | 52 | 0.0 | 3.0 | 0.00 | 0.00 | 0.00 | 95 | 1018.8 | |
| 20260506145015 | 52 | 0.0 | 3.0 | 0.00 | 0.00 | 0.00 | 95 | 1018.6 | |
| 20260506144055 | 52 | 0.0 | 3.0 | 0.00 | 0.00 | 0.00 | 95 | 1018.8 | |
| 20260506143017 | 52 | 0.0 | 1.0 | 0.00 | 0.00 | 0.00 | 94 | 1019.0 | |
| 20260506142017 | 52 | 0.0 | 1.0 | 0.00 | 0.00 | 0.00 | 94 | 1018.8 | |
| 20260506141017 | 52 | 0.0 | 1.0 | 0.00 | 0.00 | 0.00 | 94 | 1018.7 | |
| 20260506140037 | 52 | 270 | 1.0 | 3.0 | 0.00 | 0.00 | 0.00 | 93 | 1018.4 |
| 20260506135017 | 52 | 0.0 | 3.0 | 0.00 | 0.00 | 0.00 | 93 | 1018.3 | |
| 20260506134017 | 52 | 0.0 | 1.0 | 0.00 | 0.00 | 0.00 | 93 | 1018.5 | |
| 20260506133017 | 52 | 225 | 1.0 | 3.0 | 0.00 | 0.00 | 0.00 | 93 | 1018.2 |
| 20260506132017 | 53 | 0.0 | 2.0 | 0.00 | 0.00 | 0.00 | 92 | 1018.3 | |
| 20260506131017 | 53 | 0.0 | 2.0 | 0.00 | 0.00 | 0.00 | 92 | 1018.2 | |
| 20260506130017 | 53 | 0.0 | 0.0 | 0.00 | 0.00 | 0.00 | 92 | 1018.2 | |
| 20260506125017 | 53 | 0.0 | 0.0 | 0.00 | 0.00 | 0.00 | 91 | 1017.9 | |
| 20260506124037 | 53 | 0.0 | 1.0 | 0.00 | 0.00 | 0.00 | 91 | 1018.0 | |
| 20260506123017 | 53 | 0.0 | 2.0 | 0.00 | 0.00 | 0.00 | 91 | 1018.0 | |
| 20260506122016 | 53 | 0.0 | 3.0 | 0.00 | 0.00 | 0.00 | 91 | 1017.8 | |
| 20260506121016 | 53 | 0.0 | 1.0 | 0.00 | 0.00 | 0.00 | 92 | 1017.8 | |
| 20260506120017 | 53 | 0.0 | 1.0 | 0.00 | 0.00 | 0.00 | 91 | 1017.7 | |
| 20260506115017 | 53 | 0.0 | 2.0 | 0.00 | 0.00 | 0.00 | 91 | 1017.8 | |
| 20260506114017 | 53 | 0.0 | 0.0 | 0.00 | 0.00 | 0.00 | 91 | 1017.7 | |
| 20260506113016 | 53 | 0.0 | 3.0 | 0.00 | 0.00 | 0.00 | 91 | 1017.6 | |
| 20260506112016 | 53 | 0.0 | 2.0 | 0.00 | 0.00 | 0.00 | 92 | 1017.5 | |
| 20260506111017 | 52 | 0.0 | 2.0 | 0.00 | 0.00 | 0.00 | 92 | 1017.5 | |
| 20260506110016 | 52 | 0.0 | 1.0 | 0.00 | 0.00 | 0.00 | 92 | 1017.4 | |
| 20260506105017 | 52 | 0.0 | 2.0 | 0.00 | 0.00 | 0.00 | 92 | 1017.3 | |
| 20260506104036 | 52 | 203 | 1.0 | 5.0 | 0.00 | 0.00 | 0.00 | 92 | 1017.3 |
| 20260506103016 | 53 | 0.0 | 4.0 | 0.00 | 0.00 | 0.00 | 92 | 1017.2 | |
| 20260506102016 | 53 | 0.0 | 4.0 | 0.00 | 0.00 | 0.00 | 91 | 1017.2 | |
| 20260506101016 | 53 | 225 | 1.0 | 5.0 | 0.00 | 0.00 | 0.00 | 91 | 1017.2 |
| 20260506100016 | 53 | 248 | 1.0 | 3.0 | 0.00 | 0.00 | 0.00 | 92 | 1017.2 |
| 20260506095016 | 53 | 0.0 | 2.0 | 0.00 | 0.00 | 0.00 | 92 | 1017.0 | |
| 20260506094016 | 53 | 0.0 | 1.0 | 0.00 | 0.00 | 0.00 | 92 | 1016.8 | |
| 20260506093016 | 53 | 0.0 | 3.0 | 0.00 | 0.00 | 0.00 | 92 | 1016.8 | |
| 20260506092016 | 53 | 0.0 | 3.0 | 0.00 | 0.00 | 0.00 | 92 | 1016.8 | |
| 20260506091016 | 53 | 0.0 | 1.0 | 0.00 | 0.00 | 0.00 | 91 | 1016.7 | |
| 20260506090016 | 53 | 0.0 | 2.0 | 0.00 | 0.00 | 0.00 | 91 | 1016.7 | |
| 20260506085016 | 53 | 0.0 | 1.0 | 0.00 | 0.00 | 0.00 | 91 | 1016.6 | |
| 20260506084016 | 53 | 0.0 | 3.0 | 0.00 | 0.00 | 0.00 | 91 | 1016.4 | |
| 20260506083017 | 53 | 0.0 | 1.0 | 0.00 | 0.00 | 0.00 | 90 | 1016.2 | |
| 20260506082016 | 53 | 0.0 | 3.0 | 0.00 | 0.00 | 0.00 | 91 | 1016.2 | |
| 20260506081016 | 54 | 0.0 | 0.0 | 0.00 | 0.00 | 0.00 | 91 | 1016.2 | |
| 20260506073016 | 55 | 0.0 | 0.0 | 0.00 | 0.00 | 0.00 | 89 | 1015.9 | |
| 20260506072016 | 55 | 0.0 | 0.0 | 0.00 | 0.00 | 0.00 | 89 | 1015.9 | |
| 20260506071016 | 55 | 0.0 | 1.0 | 0.00 | 0.00 | 0.00 | 88 | 1016.0 | |
| 20260506062015 | 57 | 0.0 | 1.0 | 0.00 | 0.00 | 0.00 | 86 | 1015.6 | |
| 20260506061017 | 57 | 0.0 | 2.0 | 0.00 | 0.00 | 0.00 | 86 | 1015.5 | |
| 20260506051037 | 58 | 0.0 | 1.0 | 0.00 | 0.00 | 0.00 | 85 | 1015.0 | |
| 20260506045017 | 58 | 0.0 | 0.0 | 0.00 | 0.00 | 0.00 | 85 | 1014.7 |